TimeEST,TemperatureF,Dew PointF,Humidity,Sea Level PressureIn,VisibilityMPH,Wind Direction,Wind SpeedMPH,Gust SpeedMPH,PrecipitationIn,Events,Conditions,WindDirDegrees,DateUTC
12:35 AM,51.8,46.4,82,30.30,10.0,North,8.1,-,N/A,,Mostly Cloudy,360,2012-11-18 05:35:00
12:55 AM,51.8,46.4,82,30.30,10.0,North,10.4,-,N/A,,Mostly Cloudy,10,2012-11-18 05:55:00
1:15 AM,51.8,46.4,82,30.30,10.0,North,11.5,-,N/A,,Overcast,10,2012-11-18 06:15:00
1:35 AM,51.8,46.4,82,30.29,10.0,North,11.5,-,N/A,,Light Drizzle,10,2012-11-18 06:35:00
1:55 AM,51.8,46.4,82,30.28,10.0,North,10.4,16.1,N/A,,Overcast,360,2012-11-18 06:55:00
2:15 AM,51.8,46.4,82,30.27,10.0,North,13.8,19.6,N/A,,Overcast,360,2012-11-18 07:15:00
2:35 AM,51.8,46.4,82,30.28,10.0,North,11.5,-,N/A,,Overcast,360,2012-11-18 07:35:00
2:55 AM,51.8,46.4,82,30.29,10.0,North,10.4,18.4,N/A,,Overcast,10,2012-11-18 07:55:00
3:15 AM,50.0,48.2,94,30.29,10.0,North,10.4,16.1,N/A,Rain,Light Rain,360,2012-11-18 08:15:00
3:35 AM,50.0,50.0,100,30.28,10.0,North,10.4,16.1,0.01,Rain,Light Rain,360,2012-11-18 08:35:00
3:55 AM,50.0,50.0,100,30.28,10.0,North,9.2,-,0.02,Rain,Light Rain,360,2012-11-18 08:55:00
4:15 AM,48.2,48.2,100,30.27,10.0,North,10.4,-,0.01,Rain,Light Rain,350,2012-11-18 09:15:00
4:35 AM,48.2,48.2,100,30.27,10.0,North,11.5,-,0.03,Rain,Light Rain,360,2012-11-18 09:35:00
4:55 AM,48.2,48.2,100,30.27,10.0,North,9.2,-,0.06,Rain,Light Rain,350,2012-11-18 09:55:00
5:15 AM,48.2,48.2,100,30.27,10.0,North,10.4,-,0.02,Rain,Rain,350,2012-11-18 10:15:00
5:35 AM,46.4,46.4,100,30.27,10.0,North,10.4,16.1,0.03,Rain,Rain,350,2012-11-18 10:35:00
6:15 AM,46.4,46.4,100,30.27,10.0,North,10.4,16.1,0.01,Rain,Light Rain,350,2012-11-18 11:15:00
6:35 AM,46.4,46.4,100,30.28,10.0,North,10.4,17.3,0.02,Rain,Light Rain,350,2012-11-18 11:35:00
6:55 AM,46.4,46.4,100,30.28,10.0,North,11.5,16.1,0.04,Rain,Rain,350,2012-11-18 11:55:00
7:15 AM,46.4,46.4,100,30.28,7.0,NNW,9.2,-,0.02,Rain,Rain,340,2012-11-18 12:15:00
7:35 AM,48.2,48.2,100,30.28,7.0,North,12.7,19.6,0.06,Rain,Heavy Rain,350,2012-11-18 12:35:00
7:55 AM,48.2,48.2,100,30.28,7.0,NNW,12.7,20.7,0.12,Rain,Rain,340,2012-11-18 12:55:00
8:15 AM,48.2,48.2,100,30.28,5.0,North,12.7,18.4,0.05,Rain,Heavy Rain,350,2012-11-18 13:15:00
8:35 AM,48.2,48.2,100,30.28,5.0,NNW,15.0,20.7,0.12,Rain,Rain,340,2012-11-18 13:35:00
8:55 AM,48.2,48.2,100,30.28,5.0,NNW,13.8,20.7,0.16,Rain,Rain,340,2012-11-18 13:55:00
9:15 AM,48.2,48.2,100,30.26,5.0,NNW,13.8,23.0,0.04,Rain,Rain,340,2012-11-18 14:15:00
9:35 AM,50.0,50.0,100,30.25,7.0,NNW,13.8,20.7,0.07,Rain,Rain,340,2012-11-18 14:35:00
9:55 AM,50.0,50.0,100,30.25,7.0,NNW,17.3,23.0,0.09,Rain,Rain,340,2012-11-18 14:55:00
10:15 AM,50.0,50.0,100,30.25,5.0,North,13.8,18.4,0.04,Rain,Heavy Rain,350,2012-11-18 15:15:00
10:35 AM,50.0,50.0,100,30.25,5.0,North,12.7,20.7,0.14,Rain,Heavy Rain,360,2012-11-18 15:35:00
10:55 AM,50.0,50.0,100,30.25,7.0,North,16.1,20.7,0.20,Rain,Rain,10,2012-11-18 15:55:00
11:15 AM,51.8,51.8,100,30.24,10.0,North,12.7,20.7,0.01,Rain,Light Rain,360,2012-11-18 16:15:00
11:55 AM,51.8,51.8,100,30.22,10.0,North,16.1,24.2,0.04,Rain,Rain,360,2012-11-18 16:55:00
12:15 PM,51.8,51.8,100,30.21,5.0,North,18.4,24.2,0.02,Rain,Light Rain,360,2012-11-18 17:15:00
12:35 PM,51.8,51.8,100,30.21,7.0,North,16.1,19.6,0.03,Rain,Rain,360,2012-11-18 17:35:00
1:15 PM,51.8,51.8,100,30.19,10.0,North,15.0,21.9,0.01,Rain,Light Rain,10,2012-11-18 18:15:00
1:35 PM,51.8,51.8,100,30.19,7.0,North,16.1,20.7,0.03,Rain,Rain,10,2012-11-18 18:35:00
2:15 PM,51.8,51.8,100,30.17,5.0,North,16.1,25.3,0.03,Rain,Rain,360,2012-11-18 19:15:00
2:35 PM,51.8,51.8,100,30.17,7.0,North,16.1,25.3,0.06,Rain,Rain,360,2012-11-18 19:35:00
2:55 PM,51.8,51.8,100,30.18,10.0,North,17.3,21.9,0.07,Rain,Light Rain,10,2012-11-18 19:55:00
3:15 PM,51.8,51.8,100,30.18,10.0,North,16.1,23.0,N/A,,Overcast,10,2012-11-18 20:15:00
3:55 PM,51.8,51.8,100,30.16,10.0,North,19.6,26.5,0.02,Rain,Light Rain,360,2012-11-18 20:55:00
4:15 PM,51.8,51.8,100,30.17,10.0,North,17.3,23.0,N/A,,Overcast,10,2012-11-18 21:15:00
4:35 PM,51.8,51.8,100,30.18,10.0,North,15.0,24.2,N/A,Rain,Light Rain,360,2012-11-18 21:35:00
4:55 PM,51.8,51.8,100,30.17,7.0,North,12.7,23.0,N/A,Rain,Light Rain,10,2012-11-18 21:55:00
5:15 PM,53.6,53.6,100,30.18,7.0,North,18.4,28.8,N/A,Rain,Rain,10,2012-11-18 22:15:00
5:35 PM,53.6,53.6,100,30.17,7.0,North,17.3,26.5,0.01,Rain,Light Rain,10,2012-11-18 22:35:00
5:55 PM,53.6,53.6,100,30.17,7.0,North,15.0,23.0,0.02,Rain,Light Rain,360,2012-11-18 22:55:00
6:15 PM,53.6,53.6,100,30.19,7.0,North,15.0,25.3,N/A,Rain,Rain,10,2012-11-18 23:15:00
6:55 PM,53.6,53.6,100,30.19,10.0,North,15.0,-,N/A,,Overcast,10,2012-11-18 23:55:00
7:15 PM,53.6,53.6,100,30.19,10.0,North,16.1,25.3,N/A,,Overcast,360,2012-11-19 00:15:00
7:35 PM,53.6,53.6,100,30.19,10.0,North,16.1,20.7,N/A,Thunderstorm,Overcast,360,2012-11-19 00:35:00
7:55 PM,53.6,53.6,100,30.19,10.0,North,15.0,20.7,N/A,,Overcast,360,2012-11-19 00:55:00
8:15 PM,53.6,53.6,100,30.19,10.0,North,17.3,23.0,N/A,,Overcast,10,2012-11-19 01:15:00
8:55 PM,53.6,53.6,100,30.20,10.0,North,11.5,21.9,N/A,,Overcast,10,2012-11-19 01:55:00
9:15 PM,53.6,53.6,100,30.20,10.0,North,10.4,23.0,N/A,,Overcast,360,2012-11-19 02:15:00
9:35 PM,53.6,53.6,100,30.20,10.0,North,16.1,23.0,N/A,,Overcast,10,2012-11-19 02:35:00
9:55 PM,53.6,53.6,100,30.19,10.0,North,13.8,19.6,N/A,,Overcast,360,2012-11-19 02:55:00
10:15 PM,53.6,53.6,100,30.19,10.0,North,12.7,20.7,N/A,,Overcast,360,2012-11-19 03:15:00
10:35 PM,53.6,53.6,100,30.19,10.0,North,13.8,23.0,N/A,,Overcast,10,2012-11-19 03:35:00
10:55 PM,53.6,53.6,100,30.19,10.0,North,16.1,24.2,N/A,,Overcast,10,2012-11-19 03:55:00
11:15 PM,53.6,53.6,100,30.18,10.0,North,16.1,23.0,N/A,,Overcast,360,2012-11-19 04:15:00
11:35 PM,53.6,53.6,100,30.18,10.0,North,16.1,21.9,N/A,,Overcast,360,2012-11-19 04:35:00
11:55 PM,53.6,53.6,100,30.19,10.0,North,13.8,21.9,N/A,,Overcast,10,2012-11-19 04:55:00